User: anonymous   Login
Location: Heilwood
(40.6210°N, 78.9150°W)
Time: 10:55:01
(UTC-05:00)
Language:

Iridium 4 Rocket - Orbit

View from above orbital plane
View from above orbital plane
View from above satellite
View from above satellite

Ground track
Ground track

The orbit data is extracted from the following two-line orbital elements,

1 24797U 97020F   17051.09094549  .00000217  00000-0  41493-4 0  9996
2 24797  86.8946  36.2468 0225061 348.3441  52.5587 14.43950097 41047
Epoch (UTC): 20 February 2017 02:10:57
Eccentricity: 0.0225061
inclination: 86.8946°
perigee height: 585 km
apogee height: 906 km
right ascension of ascending node: 36.2468°
argument of perigee: 348.3441°
revolutions per day: 14.43950097
mean anomaly at epoch: 52.5587°
orbit number at epoch: 4104

The dashed part of the orbit path shows where the satellite is in the earth's shadow,  

DLR